Location: Unspecified
(0.0000°N, 0.0000°E)
Time: 19:22:59
(UTC+00:00)

Hubble Space Telescope - Pass Details

Date: 14 November 2025
Orbit: 482 x 485 km, 28.5° (Epoch: 06 November)

Event Time Altitude Azimuth Distance (km) Brightness Sun altitude
Exits shadow 04:23:28 29° 357° (N) 896 1.7 -19.2°
Drops below altitude 10° 04:26:05 10° 35° (NE) 1,643 3.4 -18.6°
Sets 04:28:26 0° 45° (NE) 2,521 4.6 -18.0°
